User: anonymous   Login
Location: ???????
(55.4362°N, 38.1183°E)
Time: 23:14:14
(UTC+00:00)
Language:

Cosmos 1703 - Orbit

View from above orbital plane
View from above orbital plane
View from above satellite
View from above satellite

Ground track
Ground track

The orbit data is extracted from the following two-line orbital elements,

1 16262U 85108A   21269.41231901  .00001149  00000-0  65405-4 0  9999
2 16262  82.4807 153.8925 0010251 306.8423  53.1867 15.11845043954488
Epoch (UTC): 26 September 2021 09:53:44
Eccentricity: 0.0010251
inclination: 82.4807°
perigee height: 523 km
apogee height: 537 km
right ascension of ascending node: 153.8925°
argument of perigee: 306.8423°
revolutions per day: 15.11845043
mean anomaly at epoch: 53.1867°
orbit number at epoch: 95448

The dashed part of the orbit path shows where the satellite is in the earth's shadow,  

DLR